Regional Weather Roundup
Issued by NWS

Home | Current Version | Previous Version | Text Only | Print | Product List | Glossary On
Versions: 1 2 3 4 5 6 7 8 9 10 11 12 13 14 15 16 17 18 19 20 21 22 23 24 25 26 27 28 29 30 31 32 33 34 35 36 37 38 39 40 41 42 43 44 45 46 47 48 49 50
000
ASUS43 KLOT 170110
RWRIL

ILLINOIS REGIONAL WEATHER ROUNDUP
NATIONAL WEATHER SERVICE CHICAGO/ROMEOVILLE IL
800 PM CDT WED APR 16 2014

NOTE: "FAIR" INDICATES FEW OR NO CLOUDS BELOW 12,000 FEET WITH NO
SIGNIFICANT WEATHER AND/OR OBSTRUCTIONS TO VISIBILITY.

* THESE STATIONS ARE NOT UNDER NWS QUALITY CONTROL. THEY ALSO MAY NOT
  REPORT WEATHER SUCH AS PRECIPITATION OR FOG.

ILZ001-002-007-009-015-016-024-170200-
NORTHWEST ILLINOIS

CITY           SKY/WX    TMP DP  RH WIND       PRES   REMARKS
MOLINE         CLOUDY    51  26  37 S9        30.02R
STERLING*      CLOUDY    48  30  49 S6        30.04R
SAVANNA*       CLOUDY    51  28  41 SE14      30.04R
$$

ILZ003-004-008-010-011-017-018-170200-
NORTH CENTRAL ILLINOIS

CITY           SKY/WX    TMP DP  RH WIND       PRES   REMARKS
ROCKFORD       CLOUDY    48  28  46 SE17G24   30.06F
FREEPORT*      CLOUDY    49  31  49 S16G25    30.06R
ROCHELLE*      CLOUDY    46  31  56 SE18      30.05S
DE KALB*       CLOUDY    46  28  50 SE18      30.07F
PERU*          CLOUDY    49  28  44 SE20G31   30.06S
$$

ILZ005-006-012>014-019>023-170200-
NORTHEAST ILLINOIS

CITY           SKY/WX    TMP DP  RH WIND       PRES   REMARKS
CHICAGO-OHARE  CLOUDY    49  23  36 SE21      30.13R
CHICAGO-MIDWAY MOCLDY    49  24  37 SE18G25   30.14S
AURORA         CLOUDY    48  27  44 SE16      30.10S
LANSING*       PTCLDY    46  24  40 SE13G21   30.16S
WAUKEGAN       CLOUDY    42  27  55 SE10G20   30.14R
DUPAGE AIRPORT CLOUDY    49  25  39 SE16      30.11R
KANKAKEE*      CLEAR     46  28  48 SE13      30.15R
WHEELING       CLOUDY    49  24  37 SE20G26   30.14R
MORRIS*        PTCLDY    49  23  35 SE12      30.11S
ROMEOVILLE*    MOCLDY    47  24  41 SE16      30.13R
NORTHERLY ISL    N/A     47  30  52 SE21        N/A
$$

LMZ740>746-170200-
SOUTHERN LAKE MICHIGAN

STATION/POSITION SKY/WX   TEMP    WIND        PRES    VSBY  WAVE
                          AIR SEA DIR/SP/G                  HT/PER
                          (F)     (DEG/KT/KT) (MB)    (MI)  (FT/S)
WAUKEGAN HARBOR            41     130/ 17/ 22 1022.0R
HARRISON CRIB              44     140/ 17/ 21   N/A
BURNHAM HARBOR             46     120/ 16/ 20   N/A
CALUMET HARBOR             49     140/ 16/ 22 1021.7S
MICHIGAN CITY              47     110/ 11/ 16   N/A
$$

ILZ025>027-034>036-040-047-049-050-058-095>099-170200-
WEST-CENTRAL ILLINOIS

CITY           SKY/WX    TMP DP  RH WIND       PRES   REMARKS
QUINCY         PTCLDY    53  26  35 S9        30.00R
GALESBURG*     MOCLDY    50  31  47 SE12G18   30.03R
MACOMB*        MOCLDY    51  30  44 S13       30.05R
JACKSONVILLE*  MOCLDY    50  27  40 SE7       30.05R
PITTSFIELD*    MOCLDY    52  25  34 S12       30.04R
$$

ILZ028>032-037-038-041>044-048-051>054-059>061-170200-
CENTRAL ILLINOIS

CITY           SKY/WX    TMP DP  RH WIND       PRES   REMARKS
PONTIAC        MOCLDY    48  28  46 SE14      30.10F
BLOOMINGTON    MOCLDY    45  26  47 S18G24    30.10S
DECATUR        CLEAR     49  28  44 SE18G26   30.10F
PEORIA         CLEAR     50  26  39 S17       30.06R
LACON*         MOCLDY    49  26  41 S20G29    30.05S
LINCOLN*       PTCLDY    49  29  47 SE14      30.08S
SPRINGFIELD    PTCLDY    51  27  39 SE15G25   30.08R
TAYLORVILLE    CLEAR     46  30  53 SE14      30.08S
$$

ILZ033-039-045-046-055>057-062-063-170200-
EAST-CENTRAL ILLINOIS

CITY           SKY/WX    TMP DP  RH WIND       PRES   REMARKS
CHAMPAIGN      CLEAR     46  29  51 SE12      30.14R
RANTOUL*       CLEAR     47  29  49 SE8       30.15R
MATTOON        CLEAR     47  27  45 SE12      30.13S
PARIS*         PTCLDY    46  30  54 SE10      30.17S
$$

ILZ079-100>102-170200-
SOUTHWEST ILLINOIS

CITY           SKY/WX    TMP DP  RH WIND       PRES   REMARKS
BELLEVILLE     CLEAR     52  24  33 SE13      30.08R
CAHOKIA*       CLEAR     51  26  37 S9        30.08S
SPARTA*        CLEAR     50  27  40 S8        30.12R
$$

ILZ064>066-069>071-074>076-080>082-084>086-088>090-092>094-170200-
SOUTH-CENTRAL ILLINOIS

CITY           SKY/WX    TMP DP  RH WIND       PRES   REMARKS
CARBONDALE     PTCLDY    49  29  46 SE7       30.13S
CAIRO*         MOCLDY    55  33  43 CALM      30.14R
MARION         MOCLDY    52  27  37 SE6       30.14S
MT. VERNON     MOCLDY    50  27  40 SE7       30.14S
CENTRALIA*       N/A     49  29  45 SE8       30.12R
SALEM*         PTCLDY    51  31  47 SE10      30.13S
METROPOLIS*    MOCLDY    52  27  37 CALM      30.14R
$$

ILZ067-068-072-073-078-083-087-091-170200-
SOUTHEAST ILLINOIS

CITY           SKY/WX    TMP DP  RH WIND       PRES   REMARKS
FAIRFIELD*     MOCLDY    48  32  53 SE7       30.16R
HARRISBURG*    MOCLDY    51  33  50 S7        30.17R
ROBINSON*      MOCLDY    47  31  53 SE8       30.19R
CARMI*         MOCLDY    49  36  61 E8        30.16R
$$

ABBREVIATIONS USED IN REMARKS
   TC - TEMPERATURE IN CELSIUS
  WCI - WIND CHILL INDEX
   HX - HEAT INDEX
  VSB - VISIBILITY
$$




USA.gov is the U.S. government's official web portal to all federal, state and local government web resources and services.